Regional Weather Roundup
Issued by NWS

Home | Current Version | Previous Version | Graphics & Text | Print | Product List | Glossary On
Versions: 1 2 3 4 5 6 7 8 9 10 11 12 13 14 15 16 17 18 19 20 21 22 23 24 25 26 27 28 29 30 31 32 33 34 35 36 37 38 39 40 41 42 43 44 45 46 47 48 49 50
000
ASUS43 KIND 281709
RWRIN

WEATHER ROUNDUP FOR INDIANA
NATIONAL WEATHER SERVICE INDIANAPOLIS IN
100 PM EDT FRI APR 28 2017

NOTE: "FAIR" INDICATES FEW OR NO CLOUDS BELOW 12,000 FEET WITH NO
SIGNIFICANT WEATHER AND/OR OBSTRUCTIONS TO VISIBILITY.

* - STATION DOES NOT REPORT WEATHER SUCH AS PRECIPITATION OR FOG.

+ - STATION NOT QUALITY CONTROLLED BY THE NATIONAL WEATHER SERVICE.
    USE DATA WITH CAUTION...ESPECIALLY DEWPOINT AND RELATIVE
    HUMIDITY OBSERVATIONS.

INZ001>003-010>013-019-020-281800-
NORTHWEST INDIANA

CITY           SKY/WX    TMP DP  RH WIND       PRES   REMARKS
GARY /AIRPORT/ CLOUDY    59  45  58 S9        29.96S
KNOX *+        PTSUNNY   59  25  27 S13G20    29.97F
LA PORTE +     CLOUDY    55  45  68 S8        29.97F
MICHIGAN CITY+ CLOUDY    55  45  67 S8G18     29.97F
MONTICELLO +   CLOUDY    57  45  65 S8G16     29.97S
RENSSELAER +   CLOUDY    55  46  71 SE13      29.96R
VALPARAISO     CLOUDY    57  47  69 S8        29.96F

$$

LMZ046-743>745-281800-
SOUTHERN LAKE MICHIGAN

STATION/POSITION TIME  TEMP    WIND        PRES    WAVE
                       AIR SEA DIR/SP/G            HT
                 (UTC) (F)     (DEG/KT/KT) (MB)    (FT)
BURNS HARBOR     1640   57     180/ 13/ 16 1014.9F
MICHIGAN CITY    1640   56     180/ 11/ 14   N/A
5NW MICH CITY    1700   46 46                N/A     1

$$

INZ004-005-014>016-021>024-281800-
NORTH CENTRAL INDIANA

CITY           SKY/WX    TMP DP  RH WIND       PRES   REMARKS
ELKHART        CLOUDY    57  43  58 S10       29.98R
GOSHEN         PTSUNNY   59  43  55 S15G21    29.99R
LOGANSPORT +   CLOUDY    54  45  71 S12       29.99F
PERU/GRISSOM   CLOUDY    55  48  77 S9        29.97F
ROCHESTER +    CLOUDY    59  45  58 S10       30.00F
SOUTH BEND     CLOUDY    56  44  64 S14       29.99S
WARSAW +       CLOUDY    55  43  62 S7        29.99F

$$

INZ006>009-017-018-025>027-281800-
NORTHEAST INDIANA

CITY           SKY/WX    TMP DP  RH WIND       PRES   REMARKS
ANGOLA *+      SUNNY     57  46  67 S12       29.99S
AUBURN +       CLOUDY    57  41  54 S9        30.01F
FORT WAYNE     CLOUDY    56  43  61 S13       30.01S
HUNTINGTON +   CLOUDY    55  44  67 S8        30.00F
KENDALLVILLE + CLOUDY    58  44  60 S13       30.00F

$$

INZ028-029-035-036-043>045-051>053-281800-
WEST CENTRAL INDIANA

CITY           SKY/WX    TMP DP  RH WIND       PRES   REMARKS
CRAWFORDSVL +  CLOUDY    51  51 100 SE14      29.96F
GREENCASTLE +  CLOUDY    54  48  82 SE6       29.98F
LAFAYETTE      CLOUDY    55  48  77 SE10      29.95F
TERRE HAUTE    CLOUDY    55  49  80 SE14      29.97F

$$

INZ030>032-037>040-046>048-054>057-064-065-281800-
CENTRAL INDIANA

CITY           SKY/WX    TMP DP  RH WIND       PRES   REMARKS
CP ATTERBURY + CLOUDY    55  46  71 SE6       30.01S
COLUMBUS       CLOUDY    57  46  67 SE6       30.01R
FISHERS *+     CLOUDY    52  50  93 SE5       30.00F
FRANKFORT +    LGT RAIN  56  51  84 SE9       29.98F
GREENWOOD *+   CLOUDY    56  47  70 E3        29.99F
INDIANAPOLIS   CLOUDY    54  48  80 E8        29.99F
-EAGLE CREEK   CLOUDY    55  47  74 SE8       29.98F
KOKOMO +       LGT RAIN  54  48  80 S9        30.00F
MARION +       CLOUDY    54  46  76 S10       30.00F
MT COMFORT *+  CLOUDY    54  48  82 SE7       30.00F
SHELBYVILLE    PTSUNNY   59  46  62 SE6       29.99F
ZIONSVILLE +   CLOUDY    51  48  87 SE10      30.00F

$$

INZ033-034-041-042-049-050-058-059-281800-
EAST CENTRAL INDIANA

CITY           SKY/WX    TMP DP  RH WIND       PRES   REMARKS
MUNCIE         LGT RAIN  55  47  74 S10       30.01R
RICHMOND +     CLOUDY    54  46  76 SE7       30.02R

$$

INZ060-061-067>069-081>083-085>088-281800-
SOUTHWEST INDIANA

CITY           SKY/WX    TMP DP  RH WIND       PRES   REMARKS
EVANSVILLE     CLOUDY    61  52  72 E7        29.92F
WASHINGTON +   CLOUDY    58  49  72 E8        29.95F

$$

INZ062-063-066-070>080-084-089>092-281800-
SOUTH CENTRAL AND SOUTHEAST INDIANA

CITY           SKY/WX    TMP DP  RH WIND       PRES   REMARKS
BEDFORD +      DRIZZLE   57  50  77 E5        29.97S
BLOOMINGTON    CLOUDY    55  47  74 E10       29.97F
MADISON *+     CLOUDY    63  50  63 E3        30.00S
NORTH VERNON + CLOUDY    61  48  63 CALM      30.00R
SEYMOUR +      LGT RAIN  63  50  63 CALM      30.00R

$$





USA.gov is the U.S. government's official web portal to all federal, state and local government web resources and services.